TimeAST,TemperatureF,Dew PointF,Humidity,Sea Level PressureIn,VisibilityMPH,Wind Direction,Wind SpeedMPH,Gust SpeedMPH,PrecipitationIn,Events,Conditions,WindDirDegrees,DateUTC
12:00 AM,80.6,73.4,79,29.86,6.2,East,11.5,-,N/A,,Scattered Clouds,80,2013-11-28 04:00:00
1:00 AM,80.6,75.2,84,29.83,6.2,East,13.8,-,N/A,,Scattered Clouds,90,2013-11-28 05:00:00
2:00 AM,79,74,79,29.82,9,East,9.2,,,Rain,Light Rain Showers,80,2013-11-28 06:00:00
2:00 AM,78.8,73.4,83,29.80,6.2,East,9.2,-,N/A,,Scattered Clouds,80,2013-11-28 06:00:00
3:00 AM,78.8,73.4,83,29.80,6.2,East,16.1,-,N/A,,Mostly Cloudy,90,2013-11-28 07:00:00
4:00 AM,78.8,73.4,83,29.80,6.2,ENE,13.8,-,N/A,Thunderstorm,Mostly Cloudy,60,2013-11-28 08:00:00
5:00 AM,79,73,76,29.83,9,East,11.5,,,,Widespread Dust,80,2013-11-28 09:00:00
5:00 AM,78.8,73.4,83,29.83,6.2,East,11.5,-,N/A,,Mostly Cloudy,80,2013-11-28 09:00:00
6:00 AM,78.8,71.6,78,29.83,6.2,East,11.5,-,N/A,,Mostly Cloudy,80,2013-11-28 10:00:00
7:00 AM,78.8,71.6,78,29.86,6.2,ENE,9.2,-,N/A,,Partly Cloudy,70,2013-11-28 11:00:00
8:00 AM,83,72,62,29.91,14,NE,11.5,,,,Widespread Dust,50,2013-11-28 12:00:00
8:00 AM,82.4,71.6,70,29.89,6.2,NE,11.5,-,N/A,,Partly Cloudy,50,2013-11-28 12:00:00
9:00 AM,86.0,71.6,62,29.92,6.2,ENE,11.5,-,N/A,,Partly Cloudy,70,2013-11-28 13:00:00
10:00 AM,87.8,73.4,62,29.92,6.2,ENE,13.8,-,N/A,,Partly Cloudy,60,2013-11-28 14:00:00
11:00 AM,88,71,49,29.92,16,East,16.1,,,,Scattered Clouds,90,2013-11-28 15:00:00
11:00 AM,87.8,71.6,58,29.92,6.2,East,16.1,-,N/A,,Partly Cloudy,90,2013-11-28 15:00:00
12:00 PM,87.8,71.6,58,29.89,6.2,East,17.3,-,N/A,,Partly Cloudy,90,2013-11-28 16:00:00
1:00 PM,87.8,71.6,58,29.86,6.2,East,17.3,-,N/A,,Partly Cloudy,80,2013-11-28 17:00:00
2:00 PM,87,72,52,29.84,16,East,17.3,,,,Partly Cloudy,100,2013-11-28 18:00:00
2:00 PM,86.0,71.6,62,29.83,6.2,East,17.3,-,N/A,,Scattered Clouds,100,2013-11-28 18:00:00
3:00 PM,86.0,71.6,62,29.83,6.2,East,17.3,-,N/A,,Partly Cloudy,100,2013-11-28 19:00:00
4:00 PM,84.2,71.6,66,29.80,6.2,ENE,13.8,-,N/A,,Partly Cloudy,70,2013-11-28 20:00:00
5:00 PM,83,72,63,29.83,16,East,18.4,,,,Scattered Clouds,90,2013-11-28 21:00:00
5:00 PM,84.2,73.4,70,29.83,6.2,East,18.4,-,N/A,,Partly Cloudy,90,2013-11-28 21:00:00
6:00 PM,80.6,71.6,74,29.83,6.2,East,11.5,-,N/A,,Partly Cloudy,90,2013-11-28 22:00:00
7:00 PM,80.6,71.6,74,29.86,6.2,Calm,Calm,-,N/A,,Partly Cloudy,0,2013-11-28 23:00:00
8:00 PM,79,72,75,29.88,16,Calm,Calm,,,,Scattered Clouds,,2013-11-29 00:00:00
8:00 PM,78.8,71.6,78,29.86,6.2,Calm,Calm,-,N/A,,Partly Cloudy,0,2013-11-29 00:00:00
9:00 PM,78.8,71.6,78,29.89,6.2,East,6.9,-,N/A,,Partly Cloudy,80,2013-11-29 01:00:00
10:00 PM,78.8,71.6,78,29.89,6.2,East,6.9,-,N/A,,Partly Cloudy,90,2013-11-29 02:00:00
11:00 PM,79,72,73,29.90,12,East,12.7,,,Rain,Light Rain Showers,90,2013-11-29 03:00:00
11:00 PM,78.8,71.6,78,29.89,6.2,East,12.7,-,N/A,Rain,Light Rain Showers,90,2013-11-29 03:00:00